Regional Weather Roundup
Issued by NWS Jackson, KY

Home | Current Version | Previous Version | Graphics & Text | Print | Product List | Glossary On
Versions: 1 2 3 4 5 6 7 8 9 10 11 12 13 14 15 16 17 18 19 20 21 22 23 24 25 26 27 28 29 30 31 32 33 34 35 36 37 38 39 40 41 42 43 44 45 46 47 48 49 50
000
ASUS43 KJKL 060510
RWRJKL

EAST KENTUCKY HOURLY WEATHER ROUNDUP
NATIONAL WEATHER SERVICE JACKSON KY
100 AM EDT MON JUL 06 2015

NOTE: "FAIR" INDICATES FEW OR NO CLOUDS BELOW 12,000 FEET WITH
NO SIGNIFICANT WEATHER AND/OR OBSTRUCTIONS TO VISIBILITY.

* THESE REPORTS ARE NOT UNDER NWS QUALITY CONTROL AND MAY NOT
  REPORT WEATHER SUCH AS PRECIPITATION AND FOG.

KYZ079-080-083-085-087-088-110-112-115-119-120-060600
...EASTERN KENTUCKY...

CITY           SKY/WX    TMP DP  RH WIND       PRES   REMARKS
JACKSON        LGT RAIN  68  67  96 VRB3      30.09S FOG
LONDON         FOG       67  63  87 CALM      30.11S VSB 1/2
SOMERSET*      FOG       66  66 100 CALM      30.10F VSB 1/2
MONTICELLO*    FOG       67  67 100 CALM      30.12F VSB 1/4
MIDDLESBORO*   MOCLDY    66  66  99 CALM      30.12S
HARLAN APT*      N/A     66  66 100 NW3       30.11F
HAZARD APT*    CLOUDY    68  68 100 CALM      30.09F
BLACK MTN*       N/A     61  61 100 NE2         N/A
PIKEVILLE APT* FOG       68  68 100 NW3       30.08F VSB 1/4
BIG SANDY*     FOG       67  67  99 CALM      30.07F VSB 1/4
MOREHEAD APT*  MOCLDY    68  66  94 CALM      30.10S FOG
$$

KYZ035-036-041-042-044-050-067-078-099-060600
...CENTRAL KENTUCKY...

CITY           SKY/WX    TMP DP  RH WIND       PRES   REMARKS
MT STERLING*   CLOUDY    68  68 100 CALM      30.10S FOG
FLEMING/MASON* MOCLDY    66  64  94 W3        30.08F
DANVILLE*      FOG       64  64 100 CALM      30.11F VSB 1
RICHMOND*      PTCLDY    66  64  94 CALM      30.09F
LEXINGTON      PTCLDY    65  64  97 SW3       30.09F FOG
FRANKFORT      PTCLDY    65  63  93 CALM      30.08F
$$

KYZ091>093-OHZ055-061-077-WVZ005-015-034-035-042-060600
...SOUTHERN OHIO/WEST VIRGINIA...

CITY           SKY/WX    TMP DP  RH WIND       PRES   REMARKS
COVINGTON      CLOUDY    66  62  87 W3        30.09F
COLUMBUS       MOCLDY    68  63  84 N3        30.06F
DAYTON         PTCLDY    66  61  84 W3        30.10S
WILMINGTON     MOCLDY    67  62  84 NE5       30.08F
HUNTINGTON     FOG       67  67 100 SW5       30.04F VSB 1/4
CHARLESTON     MOCLDY    66  64  93 E3        30.06S
PINEVILLE*     CLOUDY    65  65 100 MISG      30.14S FOG
BECKLEY        MOCLDY    66  63  90 SE5       30.12F
BLUEFIELD      MOCLDY    67  61  81 W5        30.14F
$$

VAZ002-007-008-TNZ017-027-036-066-071-060600
...SOUTHWEST VIRGINIA/EAST TENNESSEE...

CITY           SKY/WX    TMP DP  RH WIND       PRES   REMARKS
WISE*          CLOUDY    66  66 100 CALM      30.14F
JONESVILLE*      N/A    N/A N/A N/A MISG        N/A
ABINGDON*      RAIN      69  69 100 SW8       30.12S
BRISTOL        LGT RAIN  68  67  96 S7        30.10F
KNOXVILLE      CLOUDY    70  66  87 SW5       30.10F
OAK RIDGE      CLOUDY    71  68  90 CALM      30.12S
CROSSVILLE     PTCLDY    68  64  87 CALM      30.15F FOG
NASHVILLE      CLEAR     72  71  97 CALM      30.08F FOG
$$

...KEY TO REMARKS...
VSB - VISIBILITY IN MILES
WCI - WIND CHILL INDEX
HX  - HEAT INDEX

$$



USA.gov is the U.S. government's official web portal to all federal, state and local government web resources and services.